Location: Sabalos
(43.2860°N, 0.1414°E)
Time: 08:10:16
(UTC+00:00)

Spot 2 Rocket - Pass Details

Date: 05 July 2020
Orbit: 757 x 772 km, 98.6° (Epoch: 15 August)

Event Time Altitude Azimuth Distance (km) Brightness Sun altitude
Exits shadow 21:16:45 14° 175° (S) 2,029 5.2 -13.6°
Maximum altitude 21:21:06 70° 257° (WSW) 820 3.7 -14.1°
Drops below altitude 10° 21:26:13 10° 342° (NNW) 2,323 7.2 -14.7°
Sets 21:28:34 0° 345° (NNW) 3,256 8.1 -15.0°
